When you browse on this site, cookies collect data to enhance your experience and personalize the content and advertising you see.
Visit our Privacy Policy to learn more. By continuing to use the site, you agree to this use of cookies and data.
  • En España
  • Lista de países
  • Para 7 días
  • Temperatura del agua
  • El tiempo en el mapa
  • Informadores
  • user-avatar
    Iniciar sesión

    Tiempo cada hora Los Ángeles

    Hoy, 25 Enero, Sábado

    Tiempo Temperatura Precipitaciones Viento Presión Humedad
    00:00 +14°C° 0 mm 4 mps 749 mmHg 56%
    01:00 +13°C° 0 mm 3 mps 750 mmHg 66%
    02:00 +13°C° 0 mm 3 mps 750 mmHg 68%
    03:00 +12°C° 0 mm 3 mps 749 mmHg 70%
    04:00 +12°C° 0 mm 3 mps 749 mmHg 72%
    05:00 +14°C° 0 mm 4 mps 749 mmHg 66%
    06:00 +15°C° 0 mm 4 mps 749 mmHg 59%
    07:00 +18°C° 0 mm 4 mps 750 mmHg 53%
    08:00 +21°C° 0 mm 4 mps 749 mmHg 45%
    09:00 +25°C° 0 mm 5 mps 749 mmHg 37%
    10:00 +29°C° 0 mm 5 mps 749 mmHg 29%
    11:00 +30°C° 0 mm 5 mps 749 mmHg 27%
    12:00 +33°C° 0 mm 5 mps 749 mmHg 26%
    13:00 +35°C° 0 mm 5 mps 748 mmHg 25%
    14:00 +35°C° 0 mm 5 mps 748 mmHg 24%
    15:00 +35°C° 0 mm 5 mps 748 mmHg 24%
    16:00 +35°C° 0 mm 5 mps 748 mmHg 24%
    17:00 +32°C° 0 mm 5 mps 748 mmHg 31%
    18:00 +28°C° 0 mm 5 mps 749 mmHg 38%
    19:00 +26°C° 0 mm 5 mps 749 mmHg 44%
    20:00 +23°C° 0 mm 5 mps 749 mmHg 52%
    21:00 +21°C° 0 mm 4 mps 750 mmHg 60%
    22:00 +20°C° 0 mm 4 mps 750 mmHg 68%
    23:00 +19°C° 0 mm 4 mps 750 mmHg 72%

    Mañana, 26 Enero, Domingo

    Tiempo Temperatura Precipitaciones Viento Presión Humedad
    00:00 +18°C° 0 mm 4 mps 750 mmHg 76%
    01:00 +17°C° 0 mm 4 mps 750 mmHg 80%
    02:00 +17°C° 0 mm 4 mps 750 mmHg 82%
    03:00 +17°C° 0 mm 4 mps 749 mmHg 84%
    04:00 +15°C° 0 mm 4 mps 749 mmHg 86%
    05:00 +17°C° 0 mm 4 mps 750 mmHg 81%
    06:00 +18°C° 0 mm 4 mps 750 mmHg 76%
    07:00 +19°C° 0 mm 4 mps 750 mmHg 71%
    08:00 +22°C° 0 mm 4 mps 750 mmHg 60%
    09:00 +26°C° 0 mm 4 mps 750 mmHg 48%
    10:00 +29°C° 0 mm 4 mps 750 mmHg 36%
    11:00 +30°C° 0 mm 4 mps 750 mmHg 31%
    12:00 +33°C° 0 mm 4 mps 750 mmHg 25%
    13:00 +35°C° 0 mm 5 mps 750 mmHg 20%
    14:00 +35°C° 0 mm 5 mps 750 mmHg 19%
    15:00 +35°C° 0 mm 4 mps 749 mmHg 18%
    16:00 +36°C° 0 mm 4 mps 749 mmHg 17%
    17:00 +33°C° 0 mm 4 mps 749 mmHg 19%
    18:00 +30°C° 0 mm 4 mps 750 mmHg 22%
    19:00 +28°C° 0 mm 4 mps 750 mmHg 24%
    20:00 +25°C° 0 mm 4 mps 750 mmHg 29%
    21:00 +22°C° 0 mm 4 mps 750 mmHg 33%
    22:00 +20°C° 0 mm 4 mps 751 mmHg 38%
    23:00 +18°C° 0 mm 4 mps 750 mmHg 43%

    Pasado mañana, 27 Enero, Lunes

    Tiempo Temperatura Precipitaciones Viento Presión Humedad
    00:00 +17°C° 0 mm 3 mps 750 mmHg 48%
    01:00 +16°C° 0 mm 3 mps 749 mmHg 52%
    02:00 +14°C° 0 mm 3 mps 749 mmHg 57%
    03:00 +14°C° 0 mm 3 mps 749 mmHg 61%
    04:00 +13°C° 0 mm 3 mps 749 mmHg 65%
    05:00 +14°C° 0 mm 3 mps 748 mmHg 60%
    06:00 +17°C° 0 mm 4 mps 748 mmHg 54%
    07:00 +18°C° 0 mm 4 mps 748 mmHg 49%
    08:00 +22°C° 0 mm 4 mps 748 mmHg 39%
    09:00 +26°C° 0 mm 5 mps 748 mmHg 29%
    10:00 +30°C° 0 mm 5 mps 748 mmHg 19%
    11:00 +33°C° 0 mm 5 mps 748 mmHg 16%
    12:00 +35°C° 0 mm 5 mps 748 mmHg 12%
    13:00 +36°C° 0 mm 5 mps 747 mmHg 9%
    14:00 +36°C° 0 mm 5 mps 747 mmHg 10%
    15:00 +36°C° 0 mm 5 mps 747 mmHg 10%
    16:00 +36°C° 0 mm 5 mps 747 mmHg 11%
    17:00 +34°C° 0 mm 5 mps 747 mmHg 14%
    18:00 +30°C° 0 mm 4 mps 748 mmHg 18%
    19:00 +28°C° 0 mm 4 mps 748 mmHg 21%
    20:00 +25°C° 0 mm 4 mps 748 mmHg 29%
    21:00 +22°C° 0 mm 4 mps 748 mmHg 38%
    22:00 +20°C° 0 mm 4 mps 748 mmHg 46%
    23:00 +19°C° 0 mm 4 mps 748 mmHg 55%

    28 Enero, Martes

    Tiempo Temperatura Precipitaciones Viento Presión Humedad
    00:00 +18°C° 0 mm 4 mps 748 mmHg 64%
    01:00 +17°C° 0 mm 4 mps 747 mmHg 73%
    02:00 +16°C° 0 mm 3 mps 747 mmHg 77%
    03:00 +16°C° 0 mm 3 mps 747 mmHg 82%
    04:00 +14°C° 0 mm 3 mps 747 mmHg 86%
    05:00 +16°C° 0 mm 3 mps 747 mmHg 82%
    06:00 +17°C° 0 mm 4 mps 747 mmHg 77%
    07:00 +19°C° 0 mm 4 mps 747 mmHg 72%
    08:00 +21°C° 0 mm 4 mps 747 mmHg 63%
    09:00 +25°C° 0 mm 4 mps 747 mmHg 53%
    10:00 +27°C° 0 mm 4 mps 747 mmHg 43%
    11:00 +29°C° 0 mm 3 mps 747 mmHg 39%
    12:00 +31°C° 0 mm 3 mps 747 mmHg 34%
    13:00 +34°C° 0 mm 3 mps 746 mmHg 29%
    14:00 +32°C° 0 mm 4 mps 746 mmHg 35%
    15:00 +28°C° 0 mm 4 mps 747 mmHg 40%
    16:00 +26°C° 0 mm 5 mps 747 mmHg 45%
    17:00 +23°C° 0 mm 4 mps 747 mmHg 51%
    18:00 +22°C° 0 mm 4 mps 747 mmHg 56%
    19:00 +20°C° 0 mm 4 mps 747 mmHg 62%
    20:00 +18°C° 0 mm 4 mps 748 mmHg 64%
    21:00 +16°C° 0 mm 5 mps 748 mmHg 66%
    22:00 +14°C° 0 mm 5 mps 749 mmHg 68%
    23:00 +13°C° 0 mm 4 mps 749 mmHg 70%

    29 Enero, Miércoles

    Tiempo Temperatura Precipitaciones Viento Presión Humedad
    00:00 +11°C° 0 mm 4 mps 749 mmHg 73%
    01:00 +10°C° 0 mm 4 mps 749 mmHg 75%
    02:00 +8°C° 0 mm 4 mps 749 mmHg 78%
    03:00 +9°C° 0 mm 3 mps 749 mmHg 81%
    04:00 +8°C° 0 mm 3 mps 749 mmHg 84%
    05:00 +8°C° 0 mm 4 mps 749 mmHg 77%
    06:00 +11°C° 0 mm 4 mps 749 mmHg 70%
    07:00 +12°C° 0 mm 5 mps 749 mmHg 63%
    08:00 +15°C° 0 mm 5 mps 749 mmHg 51%
    09:00 +17°C° 0 mm 5 mps 749 mmHg 39%
    10:00 +21°C° 0 mm 5 mps 749 mmHg 27%
    11:00 +23°C° 0 mm 5 mps 749 mmHg 23%
    12:00 +26°C° 0 mm 5 mps 749 mmHg 18%
    13:00 +28°C° 0 mm 5 mps 749 mmHg 14%
    14:00 +29°C° 0 mm 5 mps 749 mmHg 14%
    15:00 +29°C° 0 mm 5 mps 749 mmHg 13%
    16:00 +29°C° 0 mm 5 mps 748 mmHg 13%
    17:00 +26°C° 0 mm 5 mps 749 mmHg 19%
    18:00 +23°C° 0 mm 5 mps 749 mmHg 25%
    19:00 +21°C° 0 mm 4 mps 749 mmHg 31%
    20:00 +18°C° 0 mm 4 mps 750 mmHg 39%
    21:00 +15°C° 0 mm 4 mps 750 mmHg 47%
    22:00 +13°C° 0 mm 4 mps 750 mmHg 55%
    23:00 +12°C° 0 mm 4 mps 750 mmHg 58%

    30 Enero, Jueves

    Tiempo Temperatura Precipitaciones Viento Presión Humedad
    00:00 +11°C° 0 mm 4 mps 749 mmHg 62%
    01:00 +10°C° 0 mm 4 mps 749 mmHg 66%
    02:00 +10°C° 0 mm 4 mps 749 mmHg 66%
    03:00 +10°C° 0 mm 4 mps 748 mmHg 66%
    04:00 +8°C° 0 mm 4 mps 748 mmHg 66%
    05:00 +10°C° 0 mm 4 mps 748 mmHg 59%
    06:00 +12°C° 0 mm 4 mps 748 mmHg 53%
    07:00 +13°C° 0 mm 4 mps 748 mmHg 47%
    08:00 +17°C° 0 mm 4 mps 748 mmHg 38%
    09:00 +21°C° 0 mm 4 mps 748 mmHg 28%
    10:00 +26°C° 0 mm 4 mps 747 mmHg 19%
    11:00 +28°C° 0 mm 4 mps 747 mmHg 17%
    12:00 +30°C° 0 mm 4 mps 747 mmHg 16%
    13:00 +33°C° 0 mm 5 mps 746 mmHg 14%
    14:00 +33°C° 0 mm 5 mps 746 mmHg 16%
    15:00 +34°C° 0 mm 5 mps 746 mmHg 17%
    16:00 +34°C° 0 mm 5 mps 746 mmHg 19%
    17:00 +30°C° 0 mm 5 mps 747 mmHg 24%
    18:00 +28°C° 0 mm 4 mps 747 mmHg 29%
    19:00 +25°C° 0 mm 4 mps 747 mmHg 34%
    20:00 +22°C° 0 mm 4 mps 748 mmHg 41%
    21:00 +20°C° 0 mm 4 mps 748 mmHg 47%
    22:00 +18°C° 0 mm 4 mps 748 mmHg 54%
    23:00 +17°C° 0 mm 4 mps 748 mmHg 58%
    Mostrar más